When you browse on this site, cookies collect data to enhance your experience and personalize the content and advertising you see.
Visit our Privacy Policy to learn more. By continuing to use the site, you agree to this use of cookies and data.
  • In Hungary
  • List of Countries
  • For 7 days
  • Water Temperature
  • Weather Map
  • News
  • Weather Widgets
  • user-avatar
    Login

    Hourly Weather Ludlow

    Today, 14 November, Thursday

    Time Temperature Precipitation Wind Pressure Humidity
    00:00 -10°C° 0 mm 0 mps 728 mmHg 82%
    01:00 -10°C° 0 mm 0 mps 728 mmHg 81%
    02:00 -11°C° 0 mm 1 mps 728 mmHg 82%
    03:00 -11°C° 0 mm 1 mps 727 mmHg 83%
    04:00 -11°C° 0 mm 1 mps 727 mmHg 84%
    05:00 -11°C° 0 mm 1 mps 727 mmHg 82%
    06:00 -10°C° 0 mm 1 mps 727 mmHg 80%
    07:00 -10°C° 0 mm 1 mps 727 mmHg 77%
    08:00 -10°C° 0 mm 2 mps 727 mmHg 71%
    09:00 -8°C° 0 mm 2 mps 727 mmHg 64%
    10:00 -8°C° 0 mm 3 mps 728 mmHg 57%
    11:00 -6°C° 0 mm 3 mps 727 mmHg 58%
    12:00 -5°C° 0 mm 3 mps 727 mmHg 58%
    13:00 -3°C° 0 mm 4 mps 727 mmHg 59%
    14:00 -2°C° 0 mm 3 mps 726 mmHg 64%
    15:00 -3°C° 0 mm 2 mps 725 mmHg 69%
    16:00 -3°C° 0 mm 2 mps 725 mmHg 74%
    17:00 -4°C° 0 mm 2 mps 725 mmHg 78%
    18:00 -5°C° 0 mm 2 mps 725 mmHg 82%
    19:00 -4°C° 0 mm 1 mps 725 mmHg 86%
    20:00 -4°C° 0 mm 1 mps 724 mmHg 85%
    21:00 -4°C° 0 mm 1 mps 724 mmHg 83%
    22:00 -4°C° 0 mm 1 mps 724 mmHg 82%
    23:00 -4°C° 0 mm 1 mps 723 mmHg 82%

    Tomorrow, 15 November, Friday

    Time Temperature Precipitation Wind Pressure Humidity
    00:00 -4°C° 0 mm 1 mps 723 mmHg 82%
    01:00 -4°C° 0 mm 1 mps 723 mmHg 82%
    02:00 -4°C° 0 mm 1 mps 723 mmHg 84%
    03:00 -6°C° 0 mm 1 mps 722 mmHg 85%
    04:00 -6°C° 0 mm 1 mps 722 mmHg 87%
    05:00 -6°C° 0 mm 1 mps 722 mmHg 88%
    06:00 -7°C° 0 mm 2 mps 721 mmHg 89%
    07:00 -7°C° 0 mm 2 mps 721 mmHg 90%
    08:00 -5°C° 0 mm 2 mps 721 mmHg 84%
    09:00 -4°C° 0 mm 3 mps 721 mmHg 77%
    10:00 -2°C° 0 mm 4 mps 721 mmHg 71%
    11:00 -2°C° 0 mm 4 mps 721 mmHg 71%
    12:00 -1°C° 0 mm 4 mps 720 mmHg 72%
    13:00 -1°C° 0 mm 5 mps 720 mmHg 72%
    14:00 -2°C° 0 mm 5 mps 720 mmHg 76%
    15:00 -2°C° 0 mm 4 mps 720 mmHg 80%
    16:00 -3°C° 0 mm 4 mps 719 mmHg 84%
    17:00 -3°C° 0 mm 4 mps 720 mmHg 85%
    18:00 -3°C° 0 mm 4 mps 720 mmHg 85%
    19:00 -4°C° 0 mm 5 mps 721 mmHg 86%
    20:00 -6°C° 0.1 mm 5 mps 721 mmHg 86%
    21:00 -7°C° 0.1 mm 5 mps 722 mmHg 87%
    22:00 -10°C° 0.1 mm 5 mps 723 mmHg 87%
    23:00 -11°C° 0 mm 4 mps 724 mmHg 82%

    Day after tomorrow, 16 November, Saturday

    Time Temperature Precipitation Wind Pressure Humidity
    00:00 -14°C° 0 mm 4 mps 725 mmHg 78%
    01:00 -15°C° 0 mm 3 mps 725 mmHg 73%
    02:00 -15°C° 0 mm 2 mps 726 mmHg 75%
    03:00 -15°C° 0 mm 2 mps 727 mmHg 77%
    04:00 -16°C° 0 mm 2 mps 727 mmHg 80%
    05:00 -16°C° 0 mm 2 mps 728 mmHg 81%
    06:00 -14°C° 0 mm 1 mps 729 mmHg 83%
    07:00 -14°C° 0 mm 1 mps 729 mmHg 84%
    08:00 -12°C° 0 mm 1 mps 730 mmHg 75%
    09:00 -10°C° 0 mm 1 mps 730 mmHg 66%
    10:00 -9°C° 0 mm 2 mps 731 mmHg 56%
    11:00 -8°C° 0 mm 2 mps 730 mmHg 53%
    12:00 -7°C° 0 mm 2 mps 730 mmHg 50%
    13:00 -7°C° 0 mm 3 mps 730 mmHg 48%
    14:00 -6°C° 0 mm 2 mps 730 mmHg 53%
    15:00 -7°C° 0 mm 2 mps 729 mmHg 59%
    16:00 -8°C° 0 mm 2 mps 729 mmHg 65%
    17:00 -8°C° 0 mm 1 mps 729 mmHg 71%
    18:00 -9°C° 0 mm 1 mps 730 mmHg 77%
    19:00 -10°C° 0 mm 1 mps 730 mmHg 83%
    20:00 -10°C° 0 mm 1 mps 730 mmHg 80%
    21:00 -11°C° 0 mm 1 mps 730 mmHg 77%
    22:00 -11°C° 0 mm 1 mps 730 mmHg 74%
    23:00 -11°C° 0 mm 1 mps 729 mmHg 71%

    17 November, Sunday

    Time Temperature Precipitation Wind Pressure Humidity
    00:00 -11°C° 0 mm 1 mps 729 mmHg 69%
    01:00 -11°C° 0 mm 1 mps 729 mmHg 67%
    02:00 -11°C° 0 mm 1 mps 728 mmHg 66%
    03:00 -11°C° 0 mm 1 mps 728 mmHg 65%
    04:00 -11°C° 0 mm 1 mps 727 mmHg 63%
    05:00 -11°C° 0 mm 1 mps 727 mmHg 62%
    06:00 -10°C° 0 mm 1 mps 727 mmHg 61%
    07:00 -10°C° 0 mm 1 mps 727 mmHg 60%
    08:00 -8°C° 0 mm 1 mps 727 mmHg 53%
    09:00 -6°C° 0 mm 1 mps 727 mmHg 46%
    10:00 -2°C° 0 mm 1 mps 726 mmHg 39%
    11:00 -2°C° 0 mm 1 mps 726 mmHg 43%
    12:00 -3°C° 0 mm 2 mps 725 mmHg 46%
    13:00 -2°C° 0 mm 2 mps 724 mmHg 49%
    14:00 -3°C° 0 mm 2 mps 723 mmHg 57%
    15:00 -2°C° 0 mm 1 mps 723 mmHg 64%
    16:00 -3°C° 0 mm 1 mps 722 mmHg 72%
    17:00 -4°C° 0 mm 1 mps 722 mmHg 74%
    18:00 -4°C° 0 mm 1 mps 721 mmHg 75%
    19:00 -6°C° 0 mm 1 mps 721 mmHg 77%
    20:00 -6°C° 0 mm 1 mps 721 mmHg 78%
    21:00 -4°C° 0 mm 1 mps 720 mmHg 79%
    22:00 -4°C° 0 mm 1 mps 720 mmHg 80%
    23:00 -4°C° 0 mm 1 mps 719 mmHg 82%

    18 November, Monday

    Time Temperature Precipitation Wind Pressure Humidity
    00:00 -3°C° 0 mm 1 mps 718 mmHg 84%
    01:00 -3°C° 0 mm 1 mps 718 mmHg 86%
    02:00 -3°C° 0 mm 1 mps 717 mmHg 86%
    03:00 -3°C° 0 mm 1 mps 717 mmHg 87%
    04:00 -2°C° 0 mm 1 mps 716 mmHg 87%
    05:00 -2°C° 0.1 mm 1 mps 716 mmHg 88%
    06:00 -2°C° 0.1 mm 1 mps 715 mmHg 89%
    07:00 -2°C° 0.1 mm 1 mps 715 mmHg 90%
    08:00 -2°C° 0.1 mm 1 mps 715 mmHg 89%
    09:00 -1°C° 0.1 mm 1 mps 715 mmHg 88%
    10:00 -1°C° 0.1 mm 1 mps 714 mmHg 88%
    11:00 -1°C° 0.1 mm 0 mps 714 mmHg 88%
    12:00 -1°C° 0.1 mm 0 mps 714 mmHg 89%
    13:00 -1°C° 0.1 mm 0 mps 713 mmHg 90%
    14:00 -1°C° 0.1 mm 0 mps 713 mmHg 92%
    15:00 -1°C° 0.1 mm 0 mps 713 mmHg 94%
    16:00 -1°C° 0.1 mm 0 mps 713 mmHg 96%
    17:00 -1°C° 0.2 mm 0 mps 713 mmHg 96%
    18:00 -1°C° 0.2 mm 0 mps 713 mmHg 97%
    19:00 -1°C° 0.2 mm 0 mps 713 mmHg 97%
    20:00 -1°C° 0.5 mm 0 mps 713 mmHg 97%
    21:00 -1°C° 0.5 mm 0 mps 713 mmHg 98%
    22:00 -1°C° 0.5 mm 0 mps 713 mmHg 98%
    23:00 -1°C° 0.2 mm 0 mps 713 mmHg 98%

    19 November, Tuesday

    Time Temperature Precipitation Wind Pressure Humidity
    00:00 -1°C° 0.2 mm 0 mps 713 mmHg 98%
    01:00 0°C° 0.2 mm 1 mps 713 mmHg 98%
    02:00 0°C° 0 mm 1 mps 714 mmHg 98%
    03:00 0°C° 0 mm 1 mps 714 mmHg 98%
    04:00 0°C° 0 mm 1 mps 714 mmHg 98%
    05:00 -1°C° 0 mm 1 mps 714 mmHg 97%
    06:00 -2°C° 0 mm 1 mps 715 mmHg 97%
    07:00 -2°C° 0 mm 1 mps 715 mmHg 97%
    08:00 -1°C° 0 mm 1 mps 715 mmHg 93%
    09:00 +1°C° 0 mm 1 mps 716 mmHg 90%
    10:00 +2°C° 0 mm 1 mps 716 mmHg 86%
    11:00 +3°C° 0 mm 1 mps 716 mmHg 86%
    12:00 +3°C° 0 mm 1 mps 716 mmHg 85%
    13:00 +3°C° 0 mm 1 mps 716 mmHg 84%
    14:00 +3°C° 0 mm 1 mps 716 mmHg 87%
    15:00 +1°C° 0 mm 0 mps 716 mmHg 90%
    16:00 +1°C° 0 mm 0 mps 716 mmHg 93%
    17:00 0°C° 0 mm 0 mps 716 mmHg 94%
    18:00 -1°C° 0 mm 0 mps 716 mmHg 94%
    19:00 -2°C° 0 mm 0 mps 716 mmHg 95%
    20:00 -2°C° 0 mm 0 mps 716 mmHg 95%
    21:00 -2°C° 0 mm 0 mps 716 mmHg 95%
    22:00 -2°C° 0 mm 0 mps 716 mmHg 95%
    23:00 -2°C° 0 mm 0 mps 716 mmHg 94%
    Show more